SCP
0 0 0 0 0 0 0 0 0 0 0 0 0 0 0 0 0 0 0 1 0 0 0 0 0 0 0 0 0 0 0 0
0 0 0 0 -0 -0 -0 0 0 0 0 0 0 0 0 0 0 0 0 1 0 0 0 0 0 0 0 0 0 0 0 0
0 0 0 -0 -0 -0 -0 0 0 0 0 0 0 0 0 0 0 0 1 0 0 0 0 0 0 0 0 0 0 0 0 0
0 0 0 0 0 0 0 -0 -0 0 0 0 0 0 0 0 0 0 0 0 0 0 0 0 0 0 0 0 0 0 0 0
0 0 0 0 0 -0 -0 0 -0 -0 0 -0 0 0 0 0 -0 0 0 0 0 0 0 0 0 0 0 0 0 0 0 0
0 0 0 0 -0 -0 -0 -0 -0 -0 0 0 0 0 -0 0 0 0 0 0 0 0 0 0 0 0 0 0 0 0 0 0
-0 0 0 0 -0 -0 -0 -0 0 0 0 0 0 -0 0 0 0 0 0 0 0 0 0 0 0 0 0 0 0 0 0 0
0 -0 0 0 -0 -0 0 0 0 0 0 0 0 0 0 0 0 0 0 0 0 0 0 0 0 0 0 0 0 0 0 0
0 0 0 0 -0 -0 -0 -0 0 0 0 0 0 0 0 0 0 0 0 0 0 0 0 0 0 0 0 0 0 0 0 0
0 0 0 0 0 0 0 0 0 0 0 0 0 0 0 0 0 0 0 0 0 0 0 0 0 0 0 0 0 0 0 0
0 0 0 0 0 -0 -0 0 0 -0 0 0 0 0 0 0 0 0 0 0 0 0 0 0 0 0 0 0 0 0 0 0
0 0 0 0 0 0 0 0 -0 0 0 0 0 0 0 0 0 0 0 0 0 0 0 0 0 0 0 0 0 0 0 0
0 0 0 0 0 -0 -0 0 0 0 0 0 0 0 0 0 0 0 0 0 0 0 0 0 0 0 0 0 0 0 0 0
0 0 0 0 0 0 0 -0 -0 0 0 0 0 0 0 0 0 0 0 0 0 0 0 0 0 0 0 0 0 0 0 0
0 0 0 0 0 0 -0 -0 -0 -0 -0 -0 -0 0 0 0 0 0 0 0 0 0 0 0 0 0 0 0 0 0 0 0
0 -0 -0 0 0 0 0 -0 0 0 0 -0 0 0 0 0 0 0 0 0 0 0 0 0 0 0 0 0 0 0 0 0
-0 -0 0 -0 -0 -0 -0 -0 -0 -0 -0 0 0 0 0 0 -0 0 0 0 0 0 0 0 0 0 0 0 0 0 0 0
0 0 -0 -0 0 -0 -0 -0 -0 -0 -0 -0 -0 0 0 0 0 0 -0 -0 0 0 0 0 0 0 0 0 0 0 0 0
0 0 0 0 -0 -0 -0 0 0 -0 0 0 0 0 0 0 0 0 0 0 0 0 0 0 0 0 0 0 0 0 0 0
0 0 0 0 0 -0 -0 -0 -0 -0 -0 -0 -0 -0 -0 0 0 0 0 -0 -0 0 0 0 0 0 0 0 0 0 0 0
Wind_Speed_500mb
61 63 63 66 65 61 62 68 71 73 76 77 81 79 78 87 86 85 86 84 95 108 114 96 94 87 81 85 82 90 94 96
60 64 64 66 64 60 56 60 65 68 74 76 79 84 74 84 91 97 87 87 85 101 105 100 96 90 87 84 93 98 91 89
62 66 69 71 68 64 55 56 54 59 66 75 78 87 83 78 93 108 90 81 91 128 101 102 94 95 91 89 96 103 97 93
71 72 75 78 75 68 59 51 44 43 54 70 81 87 97 85 101 92 86 75 109 95 97 99 99 94 89 89 92 98 89 85
68 76 78 80 78 73 66 52 35 19 34 61 72 86 91 89 101 104 81 81 79 101 93 92 87 84 79 66 56 59 55 42
72 80 83 84 82 78 69 55 35 28 10 38 63 75 86 87 103 94 76 81 94 86 73 70 76 86 72 55 51 55 58 58
70 75 83 82 85 84 75 66 58 49 48 37 44 59 73 92 80 67 86 96 77 83 74 75 67 51 56 60 54 45 44 44
68 71 73 79 84 88 82 74 75 78 70 60 75 88 83 55 77 88 85 85 86 79 68 73 70 64 58 56 52 56 50 51
62 66 66 72 79 85 86 88 88 85 89 93 102 96 79 81 84 77 83 82 86 85 74 64 66 61 56 55 50 42 45 48
53 57 62 66 73 81 87 100 113 110 111 103 99 102 99 96 86 90 90 88 81 70 61 58 46 42 49 47 42 36 29 34
48 55 62 66 73 82 90 97 106 101 90 94 95 87 89 79 88 91 89 78 79 73 62 52 49 35 32 32 36 41 36 26
47 54 58 64 72 77 78 87 83 87 84 86 91 88 86 81 74 69 67 67 69 65 58 52 49 40 31 29 25 25 27 29
44 50 54 59 66 72 76 72 72 76 73 79 79 82 77 77 72 67 59 57 57 50 44 35 29 27 29 26 25 24 23 24
39 45 50 54 57 62 65 66 64 65 67 69 74 76 75 75 70 68 61 58 54 50 46 38 31 24 18 16 15 15 17 19
34 41 47 51 55 58 58 60 61 62 66 65 67 71 71 71 69 65 59 53 50 46 43 39 33 26 21 19 14 11 13 12
24 33 40 44 46 49 51 52 53 53 54 58 60 60 62 64 62 59 56 49 46 44 38 34 30 28 22 17 17 15 14 10
18 23 30 35 40 43 46 48 48 49 52 52 51 50 51 50 49 49 48 45 43 40 35 31 26 20 15 13 14 14 12 9
13 17 22 28 33 39 42 44 45 46 45 44 43 42 41 39 37 35 33 32 33 32 31 30 25 20 16 13 10 9 9 11
9 14 18 23 26 31 35 37 36 36 35 35 35 35 33 30 28 26 25 25 25 24 25 24 24 23 21 17 10 7 5 6
9 9 13 17 21 25 28 28 28 28 28 27 27 25 23 21 19 18 17 16 15 14 14 15 16 16 16 15 12 10 6 4
Wind_Direction_500mb
315 313 310 308 307 301 292 284 277 267 258 251 244 234 234 229 227 231 230 222 218 212 213 213 212 217 214 224 223 219 216 215
322 323 324 322 319 311 300 290 279 269 260 250 243 227 230 228 227 228 227 219 219 215 210 212 212 206 210 217 217 211 209 208
330 331 332 335 332 327 318 303 284 268 254 244 238 230 218 225 225 221 215 216 206 208 214 206 206 208 208 212 212 205 204 207
341 340 341 343 343 341 334 324 302 276 253 241 234 227 216 216 221 220 206 210 204 214 220 205 200 208 207 208 208 208 209 214
341 344 347 349 350 350 346 350 328 300 247 238 228 218 216 221 213 200 202 205 201 207 200 198 199 202 202 195 194 204 202 202
345 347 353 357 1 1 2 9 14 30 110 207 213 213 211 203 188 189 201 213 199 201 177 152 163 173 160 165 175 187 189 193
350 354 357 0 5 4 14 24 31 50 77 115 157 167 179 182 174 188 201 172 168 169 159 163 170 181 175 164 163 164 177 179
355 358 1 4 12 14 24 33 42 59 75 86 119 125 120 136 156 167 163 160 163 160 161 163 174 168 185 174 157 161 169 179
1 3 7 11 19 25 32 39 47 50 62 73 94 106 113 116 124 133 139 140 142 156 167 173 177 182 183 174 158 175 185 193
8 10 16 20 22 29 32 39 48 50 57 68 78 92 102 104 106 103 113 117 126 128 129 138 144 157 169 175 170 185 192 199
17 22 25 30 30 33 32 41 45 50 56 67 72 81 87 90 90 96 101 103 107 106 111 109 118 129 141 148 158 158 168 174
26 28 28 30 38 40 37 40 45 51 55 62 71 72 76 80 83 87 92 94 94 96 96 95 97 105 117 118 131 141 160 175
30 33 33 35 37 41 43 43 45 52 56 61 66 73 78 79 78 77 77 77 82 86 90 95 101 108 109 109 120 130 138 144
31 35 37 38 41 41 42 47 49 54 59 61 65 72 76 79 79 78 81 83 84 89 93 91 91 93 99 131 138 140 139 141
29 34 37 40 40 41 41 41 44 48 53 57 60 65 68 74 79 81 81 82 85 90 88 86 86 88 85 95 111 143 167 169
39 35 33 36 41 43 43 42 43 46 52 55 56 59 66 68 68 72 75 75 77 75 74 74 73 69 76 84 88 86 93 110
28 34 36 33 34 38 39 39 40 42 44 47 53 57 58 62 65 67 70 70 74 75 75 75 75 71 71 77 80 84 87 97
11 23 31 32 29 31 32 33 35 39 41 43 46 49 55 57 58 65 64 67 73 75 75 75 74 73 72 71 76 83 95 90
333 2 13 20 26 27 27 27 32 38 43 43 42 40 41 46 52 52 49 53 58 57 58 61 63 64 68 74 82 80 85 91
275 330 355 4 9 14 17 21 27 31 33 34 37 40 44 45 45 42 42 44 43 47 50 52 51 52 53 55 72 80 90 131
Wind_Speed_850mb
61 63 63 66 65 61 62 68 71 73 76 77 81 79 78 87 86 85 86 84 95 108 114 96 94 87 81 85 82 90 94 96
60 64 64 66 64 60 56 60 65 68 74 76 79 84 74 84 91 97 87 87 85 101 105 100 96 90 87 84 93 98 91 89
62 66 69 71 68 64 55 56 54 59 66 75 78 87 83 78 93 108 90 81 91 128 101 102 94 95 91 89 96 103 97 93
71 72 75 78 75 68 59 51 44 43 54 70 81 87 97 85 101 92 86 75 109 95 97 99 99 94 89 89 92 98 89 85
68 76 78 80 78 73 66 52 35 19 34 61 72 86 91 89 101 104 81 81 79 101 93 92 87 84 79 66 56 59 55 42
72 80 83 84 82 78 69 55 35 28 10 38 63 75 86 87 103 94 76 81 94 86 73 70 76 86 72 55 51 55 58 58
70 75 83 82 85 84 75 66 58 49 48 37 44 59 73 92 80 67 86 96 77 83 74 75 67 51 56 60 54 45 44 44
68 71 73 79 84 88 82 74 75 78 70 60 75 88 83 55 77 88 85 85 86 79 68 73 70 64 58 56 52 56 50 51
62 66 66 72 79 85 86 88 88 85 89 93 102 96 79 81 84 77 83 82 86 85 74 64 66 61 56 55 50 42 45 48
53 57 62 66 73 81 87 100 113 110 111 103 99 102 99 96 86 90 90 88 81 70 61 58 46 42 49 47 42 36 29 34
48 55 62 66 73 82 90 97 106 101 90 94 95 87 89 79 88 91 89 78 79 73 62 52 49 35 32 32 36 41 36 26
47 54 58 64 72 77 78 87 83 87 84 86 91 88 86 81 74 69 67 67 69 65 58 52 49 40 31 29 25 25 27 29
44 50 54 59 66 72 76 72 72 76 73 79 79 82 77 77 72 67 59 57 57 50 44 35 29 27 29 26 25 24 23 24
39 45 50 54 57 62 65 66 64 65 67 69 74 76 75 75 70 68 61 58 54 50 46 38 31 24 18 16 15 15 17 19
34 41 47 51 55 58 58 60 61 62 66 65 67 71 71 71 69 65 59 53 50 46 43 39 33 26 21 19 14 11 13 12
24 33 40 44 46 49 51 52 53 53 54 58 60 60 62 64 62 59 56 49 46 44 38 34 30 28 22 17 17 15 14 10
18 23 30 35 40 43 46 48 48 49 52 52 51 50 51 50 49 49 48 45 43 40 35 31 26 20 15 13 14 14 12 9
13 17 22 28 33 39 42 44 45 46 45 44 43 42 41 39 37 35 33 32 33 32 31 30 25 20 16 13 10 9 9 11
9 14 18 23 26 31 35 37 36 36 35 35 35 35 33 30 28 26 25 25 25 24 25 24 24 23 21 17 10 7 5 6
9 9 13 17 21 25 28 28 28 28 28 27 27 25 23 21 19 18 17 16 15 14 14 15 16 16 16 15 12 10 6 4
Wind_Direction_850mb
315 313 310 308 307 301 292 284 277 267 258 251 244 234 234 229 227 231 230 222 218 212 213 213 212 217 214 224 223 219 216 215
322 323 324 322 319 311 300 290 279 269 260 250 243 227 230 228 227 228 227 219 219 215 210 212 212 206 210 217 217 211 209 208
330 331 332 335 332 327 318 303 284 268 254 244 238 230 218 225 225 221 215 216 206 208 214 206 206 208 208 212 212 205 204 207
341 340 341 343 343 341 334 324 302 276 253 241 234 227 216 216 221 220 206 210 204 214 220 205 200 208 207 208 208 208 209 214
341 344 347 349 350 350 346 350 328 300 247 238 228 218 216 221 213 200 202 205 201 207 200 198 199 202 202 195 194 204 202 202
345 347 353 357 1 1 2 9 14 30 110 207 213 213 211 203 188 189 201 213 199 201 177 152 163 173 160 165 175 187 189 193
350 354 357 0 5 4 14 24 31 50 77 115 157 167 179 182 174 188 201 172 168 169 159 163 170 181 175 164 163 164 177 179
355 358 1 4 12 14 24 33 42 59 75 86 119 125 120 136 156 167 163 160 163 160 161 163 174 168 185 174 157 161 169 179
1 3 7 11 19 25 32 39 47 50 62 73 94 106 113 116 124 133 139 140 142 156 167 173 177 182 183 174 158 175 185 193
8 10 16 20 22 29 32 39 48 50 57 68 78 92 102 104 106 103 113 117 126 128 129 138 144 157 169 175 170 185 192 199
17 22 25 30 30 33 32 41 45 50 56 67 72 81 87 90 90 96 101 103 107 106 111 109 118 129 141 148 158 158 168 174
26 28 28 30 38 40 37 40 45 51 55 62 71 72 76 80 83 87 92 94 94 96 96 95 97 105 117 118 131 141 160 175
30 33 33 35 37 41 43 43 45 52 56 61 66 73 78 79 78 77 77 77 82 86 90 95 101 108 109 109 120 130 138 144
31 35 37 38 41 41 42 47 49 54 59 61 65 72 76 79 79 78 81 83 84 89 93 91 91 93 99 131 138 140 139 141
29 34 37 40 40 41 41 41 44 48 53 57 60 65 68 74 79 81 81 82 85 90 88 86 86 88 85 95 111 143 167 169
39 35 33 36 41 43 43 42 43 46 52 55 56 59 66 68 68 72 75 75 77 75 74 74 73 69 76 84 88 86 93 110
28 34 36 33 34 38 39 39 40 42 44 47 53 57 58 62 65 67 70 70 74 75 75 75 75 71 71 77 80 84 87 97
11 23 31 32 29 31 32 33 35 39 41 43 46 49 55 57 58 65 64 67 73 75 75 75 74 73 72 71 76 83 95 90
333 2 13 20 26 27 27 27 32 38 43 43 42 40 41 46 52 52 49 53 58 57 58 61 63 64 68 74 82 80 85 91
275 330 355 4 9 14 17 21 27 31 33 34 37 40 44 45 45 42 42 44 43 47 50 52 51 52 53 55 72 80 90 131